Weather History for KPKD - May, 2012

Change the Weather History Date:

Wednesday, May 2, 2012

  Actual Average Record
Temperature  
Mean Temperature 58 °F -  
Max Temperature 75 °F 62 °F 92 °F (1959)
Min Temperature 42 °F 34 °F 19 °F (1984)
Degree Days  
Heating Degree Days 8    
Growing Degree Days 8 (Base 50)    
Moisture  
Dew Point 45 °F    
Average Humidity 72    
Maximum Humidity 100    
Minimum Humidity 28    
Precipitation  
Precipitation 0.03 in - - ()
Sea Level Pressure  
Sea Level Pressure 29.65 in    
Wind  
Wind Speed 4 mph (West)    
Max Wind Speed 13 mph    
Max Gust Speed 21 mph    
Visibility 5 miles    
Events Fog , Rain    
Averages and records for this station are not official NWS values.
T = Trace of Precipitation, MM = Missing Value Source: NWS Daily Summary

Daily Weather History Graph

Daily Weather History Graph

Search for Another Location

Airport or City:

Trip Planner

Search our weather history database for the weather conditions in past years. The results will help you decide how hot, cold, wet, or windy it might be!

Date:

Astronomy

May. 02, 2012 Rise Set
Actual Time 6:02 AM CDT 8:32 PM CDT
Civil Twilight 5:28 AM CDT 9:06 PM CDT
Nautical Twilight 4:45 AM CDT 9:49 PM CDT
Astronomical Twilight 3:56 AM CDT 10:39 PM CDT
Moon 4:33 PM CDT (5/2) 3:48 AM CDT (5/2)
Length of Visible Light 15h 38m
Length of Day
14h 30m
Waxing Gibbous, 83% of the Moon is Illuminated
May 2
Waxing Gibbous
May 5
Full
May 12
Last Quarter
May 20
New
May 28
First Quarter

Hourly Weather History & Observations

Time (CDT) Temp. Windchill Dew Point Humidity Pressure Visibility Wind Dir Wind Speed Gust Speed Precip Events Conditions
12:53 AM 54.0 °F - 52.0 °F 93% 29.57 in 6.0 mi NW 6.9 mph - N/A   Partly Cloudy
1:33 AM 51.8 °F - 48.2 °F 88% 29.53 in 1.8 mi SSW 3.5 mph - N/A   Partly Cloudy
1:36 AM 51.8 °F - 50.0 °F 94% 29.53 in 0.8 mi South 4.6 mph - N/A   Mist
1:53 AM 50.0 °F - 50.0 °F 100% 29.54 in 0.2 mi Calm Calm - N/A Fog Fog
2:22 AM 51.8 °F - 50.0 °F 94% 29.53 in 0.5 mi Calm Calm - N/A Fog Fog
2:38 AM 48.2 °F - 48.2 °F 100% 29.53 in 0.2 mi Calm Calm - N/A Fog Fog
2:53 AM 48.9 °F - 48.0 °F 97% 29.55 in 0.2 mi SE 4.6 mph - N/A Fog Fog
3:20 AM 50.0 °F - 48.2 °F 94% 29.54 in 0.2 mi SE 3.5 mph - N/A Fog Fog
3:36 AM 46.4 °F - 46.4 °F 100% 29.54 in 0.2 mi Calm Calm - N/A Fog Fog
3:53 AM 46.9 °F - 46.0 °F 97% 29.57 in 0.5 mi Calm Calm - N/A Fog Fog
4:02 AM 46.4 °F - 46.4 °F 100% 29.56 in 0.2 mi Calm Calm - N/A Fog Fog
4:53 AM 48.0 °F - 48.0 °F 100% 29.60 in 0.2 mi SSE 4.6 mph - N/A Fog Fog
5:34 AM 44.6 °F 43.1 °F 42.8 °F 93% 29.60 in 0.5 mi SW 3.5 mph - N/A Fog Fog
5:41 AM 42.8 °F 41.1 °F 42.8 °F 100% 29.60 in 0.2 mi SW 3.5 mph - N/A Fog Fog
5:53 AM 44.1 °F 42.5 °F 43.0 °F 96% 29.62 in 0.2 mi SSW 3.5 mph - N/A Fog Fog
6:53 AM 45.0 °F - 44.1 °F 97% 29.64 in 0.2 mi Calm Calm - N/A Fog Fog
7:20 AM 46.4 °F - 46.4 °F 100% 29.63 in 1.0 mi Calm Calm - N/A   Mist
7:22 AM 46.4 °F - 46.4 °F 100% 29.63 in 2.0 mi Calm Calm - N/A   Scattered Clouds
7:29 AM 48.2 °F - 48.2 °F 100% 29.64 in 5.0 mi Calm Calm - N/A   Partly Cloudy
7:53 AM 53.1 °F - 52.0 °F 96% 29.66 in 6.0 mi West 6.9 mph - N/A   Clear
8:53 AM 57.9 °F - 52.0 °F 81% 29.68 in 10.0 mi WNW 6.9 mph - N/A   Clear
9:53 AM 64.0 °F - 53.1 °F 67% 29.69 in 10.0 mi West 6.9 mph - N/A   Clear
10:53 AM 69.1 °F - 46.9 °F 45% 29.70 in 10.0 mi West 8.1 mph - N/A   Clear
11:53 AM 72.0 °F - 39.0 °F 30% 29.71 in 10.0 mi NW 12.7 mph - N/A   Clear
12:53 PM 73.9 °F - 41.0 °F 30% 29.73 in 10.0 mi West 12.7 mph 20.7 mph N/A   Clear
1:53 PM 73.9 °F - 39.9 °F 29% 29.74 in 10.0 mi NW 11.5 mph 18.4 mph N/A   Clear
2:53 PM 73.9 °F - 41.0 °F 30% 29.75 in 10.0 mi NW 11.5 mph - N/A   Partly Cloudy
3:53 PM 72.0 °F - 37.0 °F 28% 29.76 in 10.0 mi NW 10.4 mph - N/A   Mostly Cloudy
4:53 PM 71.1 °F - 37.9 °F 30% 29.75 in 10.0 mi Calm Calm - N/A   Mostly Cloudy
5:53 PM 70.0 °F - 39.0 °F 32% 29.77 in 10.0 mi West 3.5 mph - 0.00 in Rain Light Rain
6:53 PM 70.0 °F - 39.9 °F 33% 29.78 in 10.0 mi Calm Calm - 0.00 in   Overcast
7:53 PM 69.8 °F - 41.0 °F 35% 29.76 in 10.0 mi NE 3.5 mph - N/A   Overcast
8:53 PM 64.9 °F - 41.0 °F 42% 29.75 in 10.0 mi NE 5.8 mph - N/A   Mostly Cloudy
9:53 PM 63.0 °F - 39.9 °F 43% 29.76 in 10.0 mi ENE 5.8 mph - N/A   Clear
10:53 PM 61.0 °F - 39.9 °F 46% 29.76 in 10.0 mi NE 5.8 mph - N/A   Mostly Cloudy
11:53 PM 57.0 °F - 46.0 °F 67% 29.77 in 6.0 mi East 10.4 mph - 0.03 in Rain Light Rain